TimeCST,TemperatureF,Dew PointF,Humidity,Sea Level PressureIn,VisibilityMPH,Wind Direction,Wind SpeedMPH,Gust SpeedMPH,PrecipitationIn,Events,Conditions,WindDirDegrees,DateUTC
12:46 AM,26.6,21.2,80,29.88,10.0,NNE,17.3,-,N/A,,Overcast,20,2013-12-19 06:46:00
12:55 AM,26.1,21.0,81,29.92,10.0,NNE,15.0,-,N/A,,Overcast,20,2013-12-19 06:55:00
1:55 AM,24.1,17.1,75,29.95,10.0,NNE,17.3,24.2,N/A,,Overcast,20,2013-12-19 07:55:00
2:14 AM,21.2,15.8,80,29.94,10.0,NNE,16.1,24.2,N/A,,Scattered Clouds,20,2013-12-19 08:14:00
2:55 AM,18.0,10.9,74,30.00,10.0,North,16.1,25.3,N/A,,Clear,10,2013-12-19 08:55:00
3:55 AM,14.0,8.1,77,30.03,10.0,North,17.3,25.3,N/A,,Partly Cloudy,10,2013-12-19 09:55:00
4:55 AM,10.9,6.1,81,30.04,10.0,North,17.3,-,N/A,,Clear,10,2013-12-19 10:55:00
5:55 AM,10.0,3.0,73,30.06,10.0,NNE,13.8,20.7,N/A,,Clear,20,2013-12-19 11:55:00
6:55 AM,7.0,1.0,77,30.08,10.0,North,13.8,-,N/A,,Clear,10,2013-12-19 12:55:00
7:55 AM,6.1,-0.0,76,30.09,10.0,North,11.5,-,N/A,,Clear,10,2013-12-19 13:55:00
8:55 AM,3.9,-2.0,76,30.11,10.0,North,11.5,-,N/A,,Clear,350,2013-12-19 14:55:00
9:55 AM,3.9,-2.0,76,30.13,10.0,North,12.7,-,N/A,,Clear,350,2013-12-19 15:55:00
10:55 AM,5.0,-2.0,73,30.13,10.0,North,15.0,-,N/A,,Clear,10,2013-12-19 16:55:00
11:55 AM,5.0,-0.9,76,30.13,10.0,North,17.3,-,N/A,,Mostly Cloudy,360,2013-12-19 17:55:00
12:55 PM,6.1,-0.0,76,30.10,10.0,North,19.6,-,N/A,,Overcast,360,2013-12-19 18:55:00
1:55 PM,5.0,-0.9,76,30.08,10.0,North,18.4,-,N/A,,Overcast,10,2013-12-19 19:55:00
2:48 PM,5.0,-0.4,78,30.01,2.5,North,19.6,27.6,0.00,Snow,Light Snow,350,2013-12-19 20:48:00
2:55 PM,3.9,-0.9,80,30.10,0.8,North,20.7,-,0.00,Snow,Light Snow,350,2013-12-19 20:55:00
3:39 PM,3.2,-2.2,78,30.05,0.2,North,23.0,-,0.01,Snow,Heavy Snow,350,2013-12-19 21:39:00
3:55 PM,3.0,-0.9,84,30.14,0.5,North,20.7,-,0.01,Fog-Snow,Snow,360,2013-12-19 21:55:00
4:29 PM,3.2,-2.2,78,30.06,0.8,North,18.4,-,0.01,Snow,Light Snow,360,2013-12-19 22:29:00
4:36 PM,1.4,-2.2,85,30.05,1.0,North,19.6,25.3,0.01,Snow,Light Snow,10,2013-12-19 22:36:00
4:55 PM,1.9,-2.0,83,30.14,1.5,North,13.8,27.6,0.01,Snow,Light Snow,10,2013-12-19 22:55:00
5:11 PM,1.4,-2.2,85,30.04,1.2,North,15.0,25.3,0.00,Snow,Light Snow,10,2013-12-19 23:11:00
5:55 PM,1.9,-4.0,76,30.14,1.5,North,20.7,28.8,0.00,Snow,Light Snow,10,2013-12-19 23:55:00
6:53 PM,1.4,-4.0,78,30.05,1.8,North,20.7,27.6,0.00,Snow,Light Snow,10,2013-12-20 00:53:00
6:55 PM,1.0,-4.0,79,30.15,1.8,North,18.4,-,0.00,Snow,Light Snow,360,2013-12-20 00:55:00
7:14 PM,1.4,-2.2,85,30.07,1.2,North,17.3,-,0.01,Snow,Light Snow,360,2013-12-20 01:14:00
7:32 PM,1.4,-2.2,85,30.07,1.0,North,15.0,-,0.02,Snow,Light Snow,360,2013-12-20 01:32:00
7:45 PM,1.4,-2.2,85,30.07,0.8,North,16.1,-,0.02,Snow,Light Snow,360,2013-12-20 01:45:00
7:55 PM,1.9,-2.9,80,30.17,0.8,North,16.1,-,0.02,Snow,Light Snow,360,2013-12-20 01:55:00
8:09 PM,1.4,-2.2,85,30.08,1.0,North,15.0,-,0.01,Snow,Light Snow,360,2013-12-20 02:09:00
8:37 PM,1.4,-2.2,85,30.08,0.8,North,13.8,-,0.03,Snow,Light Snow,350,2013-12-20 02:37:00
8:55 PM,1.9,-2.0,83,30.18,0.8,North,10.4,-,0.04,Snow,Light Snow,350,2013-12-20 02:55:00
9:33 PM,3.2,-2.2,78,30.08,1.0,NNW,13.8,-,0.04,Snow,Light Snow,340,2013-12-20 03:33:00
9:55 PM,3.0,-0.9,84,30.18,1.5,NNW,15.0,-,0.04,Snow,Light Snow,340,2013-12-20 03:55:00
10:13 PM,3.2,-2.2,78,30.09,1.5,NNW,16.1,-,0.01,Snow,Light Snow,340,2013-12-20 04:13:00
10:50 PM,3.2,-0.4,85,30.08,2.0,North,13.8,-,0.01,Snow,Light Snow,360,2013-12-20 04:50:00
10:55 PM,3.0,-0.9,84,30.18,2.0,North,16.1,-,0.01,Snow,Light Snow,350,2013-12-20 04:55:00
11:36 PM,3.2,-2.2,78,30.09,3.0,North,15.0,-,0.01,Snow,Light Snow,360,2013-12-20 05:36:00
11:55 PM,3.0,-2.0,80,30.18,6.0,North,13.8,-,0.01,Snow,Light Snow,360,2013-12-20 05:55:00